• In Romania
  • List of Countries
  • For 7 days
  • Water Temperature
  • Satellite Maps
  • Weather Map
  • Weather Widgets
  • user-avatar
    Login

    Hourly Weather Salzburg

    Today, 24 June, Saturday

    Time Temperature Precipitation Wind Pressure Humidity
    00:00 +11°C° 0 mm 1 mps 629 mmHg 93%
    01:00 +10°C° 0 mm 1 mps 629 mmHg 93%
    02:00 +10°C° 0 mm 1 mps 629 mmHg 93%
    03:00 +10°C° 0 mm 1 mps 629 mmHg 93%
    04:00 +10°C° 0 mm 1 mps 629 mmHg 93%
    05:00 +12°C° 0 mm 1 mps 630 mmHg 89%
    06:00 +14°C° 0 mm 1 mps 630 mmHg 84%
    07:00 +14°C° 0 mm 0 mps 631 mmHg 80%
    08:00 +18°C° 0 mm 1 mps 631 mmHg 73%
    09:00 +20°C° 0 mm 1 mps 632 mmHg 67%
    10:00 +21°C° 0 mm 1 mps 632 mmHg 60%
    11:00 +21°C° 0.1 mm 1 mps 632 mmHg 60%
    12:00 +21°C° 0.1 mm 2 mps 632 mmHg 60%
    13:00 +21°C° 0.1 mm 2 mps 632 mmHg 60%
    14:00 +20°C° 0.9 mm 2 mps 631 mmHg 67%
    15:00 +20°C° 0.9 mm 2 mps 631 mmHg 74%
    16:00 +19°C° 0.9 mm 2 mps 631 mmHg 81%
    17:00 +18°C° 0.9 mm 2 mps 630 mmHg 85%
    18:00 +18°C° 0.9 mm 1 mps 630 mmHg 90%
    19:00 +16°C° 0.9 mm 1 mps 630 mmHg 94%
    20:00 +15°C° 0.9 mm 1 mps 629 mmHg 95%
    21:00 +13°C° 0.9 mm 1 mps 629 mmHg 97%
    22:00 +11°C° 0.9 mm 0 mps 629 mmHg 98%
    23:00 +10°C° 0.9 mm 0 mps 628 mmHg 98%

    Tomorrow, 25 June, Sunday

    Time Temperature Precipitation Wind Pressure Humidity
    00:00 +10°C° 0.9 mm 0 mps 628 mmHg 98%
    01:00 +10°C° 0.9 mm 0 mps 628 mmHg 98%
    02:00 +10°C° 1 mm 0 mps 628 mmHg 98%
    03:00 +10°C° 1 mm 0 mps 628 mmHg 98%
    04:00 +10°C° 1 mm 0 mps 628 mmHg 98%
    05:00 +12°C° 1.2 mm 1 mps 628 mmHg 97%
    06:00 +12°C° 1.2 mm 1 mps 628 mmHg 97%
    07:00 +13°C° 1.2 mm 1 mps 628 mmHg 96%
    08:00 +13°C° 2 mm 1 mps 628 mmHg 96%
    09:00 +12°C° 2 mm 1 mps 628 mmHg 96%
    10:00 +12°C° 2 mm 1 mps 628 mmHg 95%
    11:00 +12°C° 1.4 mm 1 mps 628 mmHg 94%
    12:00 +12°C° 1.4 mm 1 mps 628 mmHg 93%
    13:00 +12°C° 1.4 mm 2 mps 628 mmHg 92%
    14:00 +13°C° 0.6 mm 2 mps 628 mmHg 90%
    15:00 +13°C° 0.6 mm 1 mps 628 mmHg 87%
    16:00 +14°C° 0.6 mm 1 mps 628 mmHg 84%
    17:00 +14°C° 0.2 mm 1 mps 628 mmHg 87%
    18:00 +13°C° 0.2 mm 1 mps 628 mmHg 89%
    19:00 +13°C° 0.2 mm 1 mps 629 mmHg 91%
    20:00 +11°C° 0 mm 1 mps 628 mmHg 93%
    21:00 +9°C° 0 mm 1 mps 627 mmHg 95%
    22:00 +7°C° 0 mm 1 mps 627 mmHg 96%
    23:00 +7°C° 0 mm 1 mps 627 mmHg 96%

    Day after tomorrow, 26 June, Monday

    Time Temperature Precipitation Wind Pressure Humidity
    00:00 +8°C° 0 mm 1 mps 627 mmHg 96%
    01:00 +8°C° 0 mm 1 mps 627 mmHg 95%
    02:00 +7°C° 0 mm 1 mps 627 mmHg 95%
    03:00 +7°C° 0 mm 1 mps 626 mmHg 95%
    04:00 +6°C° 0 mm 1 mps 626 mmHg 94%
    05:00 +8°C° 0 mm 1 mps 627 mmHg 90%
    06:00 +10°C° 0 mm 0 mps 628 mmHg 86%
    07:00 +12°C° 0 mm 0 mps 629 mmHg 82%
    08:00 +14°C° 0 mm 0 mps 630 mmHg 74%
    09:00 +18°C° 0 mm 1 mps 630 mmHg 65%
    10:00 +19°C° 0 mm 1 mps 631 mmHg 56%
    11:00 +20°C° 0 mm 1 mps 631 mmHg 54%
    12:00 +21°C° 0 mm 1 mps 631 mmHg 52%
    13:00 +22°C° 0 mm 1 mps 631 mmHg 50%
    14:00 +20°C° 0.1 mm 2 mps 630 mmHg 53%
    15:00 +20°C° 0.1 mm 2 mps 630 mmHg 56%
    16:00 +20°C° 0.1 mm 2 mps 630 mmHg 59%
    17:00 +19°C° 0.3 mm 2 mps 629 mmHg 68%
    18:00 +18°C° 0.3 mm 1 mps 629 mmHg 78%
    19:00 +16°C° 0.3 mm 1 mps 628 mmHg 87%
    20:00 +14°C° 0.2 mm 1 mps 628 mmHg 90%
    21:00 +13°C° 0.2 mm 1 mps 627 mmHg 92%
    22:00 +11°C° 0.2 mm 1 mps 627 mmHg 95%
    23:00 +11°C° 0.1 mm 1 mps 627 mmHg 95%

    27 June, Tuesday

    Time Temperature Precipitation Wind Pressure Humidity
    00:00 +10°C° 0.1 mm 2 mps 626 mmHg 95%
    01:00 +10°C° 0.1 mm 2 mps 626 mmHg 94%
    02:00 +9°C° 0 mm 2 mps 626 mmHg 94%
    03:00 +9°C° 0 mm 2 mps 626 mmHg 94%
    04:00 +9°C° 0 mm 2 mps 625 mmHg 93%
    05:00 +12°C° 0.1 mm 2 mps 626 mmHg 90%
    06:00 +13°C° 0.1 mm 1 mps 626 mmHg 86%
    07:00 +15°C° 0.1 mm 1 mps 627 mmHg 82%
    08:00 +16°C° 0.3 mm 1 mps 628 mmHg 76%
    09:00 +19°C° 0.3 mm 1 mps 628 mmHg 70%
    10:00 +20°C° 0.3 mm 1 mps 629 mmHg 64%
    11:00 +21°C° 0.8 mm 1 mps 628 mmHg 66%
    12:00 +21°C° 0.8 mm 1 mps 628 mmHg 69%
    13:00 +21°C° 0.8 mm 1 mps 628 mmHg 72%
    14:00 +21°C° 1.1 mm 1 mps 628 mmHg 71%
    15:00 +21°C° 1.1 mm 1 mps 627 mmHg 71%
    16:00 +21°C° 1.1 mm 1 mps 627 mmHg 71%
    17:00 +20°C° 0.7 mm 1 mps 627 mmHg 76%
    18:00 +19°C° 0.7 mm 1 mps 626 mmHg 82%
    19:00 +18°C° 0.7 mm 1 mps 626 mmHg 88%
    20:00 +16°C° 0.3 mm 1 mps 625 mmHg 89%
    21:00 +14°C° 0.3 mm 2 mps 625 mmHg 90%
    22:00 +12°C° 0.3 mm 2 mps 625 mmHg 91%
    23:00 +12°C° 0 mm 2 mps 624 mmHg 91%

    28 June, Wednesday

    Time Temperature Precipitation Wind Pressure Humidity
    00:00 +12°C° 0 mm 2 mps 624 mmHg 91%
    01:00 +10°C° 0 mm 2 mps 623 mmHg 91%
    02:00 +10°C° 0 mm 2 mps 623 mmHg 91%
    03:00 +10°C° 0 mm 2 mps 623 mmHg 91%
    04:00 +10°C° 0 mm 2 mps 622 mmHg 91%
    05:00 +12°C° 0 mm 2 mps 623 mmHg 89%
    06:00 +13°C° 0 mm 2 mps 623 mmHg 86%
    07:00 +15°C° 0 mm 2 mps 623 mmHg 84%
    08:00 +17°C° 0 mm 2 mps 624 mmHg 75%
    09:00 +19°C° 0 mm 2 mps 625 mmHg 67%
    10:00 +21°C° 0 mm 2 mps 625 mmHg 58%
    11:00 +23°C° 0 mm 2 mps 625 mmHg 55%
    12:00 +24°C° 0 mm 2 mps 625 mmHg 52%
    13:00 +25°C° 0 mm 3 mps 625 mmHg 49%
    14:00 +24°C° 0.3 mm 3 mps 625 mmHg 52%
    15:00 +24°C° 0.3 mm 3 mps 625 mmHg 56%
    16:00 +22°C° 0.3 mm 4 mps 625 mmHg 59%
    17:00 +20°C° 0.3 mm 3 mps 624 mmHg 68%
    18:00 +19°C° 0.3 mm 3 mps 623 mmHg 76%
    19:00 +17°C° 0.3 mm 2 mps 622 mmHg 84%
    20:00 +16°C° 0 mm 2 mps 622 mmHg 85%
    21:00 +14°C° 0 mm 3 mps 621 mmHg 86%
    22:00 +13°C° 0 mm 3 mps 621 mmHg 87%
    23:00 +12°C° 0 mm 3 mps 621 mmHg 87%

    29 June, Thursday

    Time Temperature Precipitation Wind Pressure Humidity
    00:00 +12°C° 0 mm 3 mps 620 mmHg 86%
    01:00 +12°C° 0 mm 3 mps 620 mmHg 86%
    02:00 +12°C° 0 mm 3 mps 620 mmHg 86%
    03:00 +12°C° 0 mm 3 mps 620 mmHg 86%
    04:00 +11°C° 0 mm 3 mps 619 mmHg 86%
    05:00 +12°C° 0.1 mm 3 mps 619 mmHg 84%
    06:00 +13°C° 0.1 mm 3 mps 620 mmHg 83%
    07:00 +13°C° 0.1 mm 3 mps 620 mmHg 82%
    08:00 +14°C° 0.7 mm 3 mps 620 mmHg 79%
    09:00 +16°C° 0.7 mm 3 mps 621 mmHg 77%
    10:00 +17°C° 0.7 mm 4 mps 621 mmHg 75%
    11:00 +17°C° 0.9 mm 3 mps 621 mmHg 73%
    12:00 +17°C° 0.9 mm 3 mps 621 mmHg 71%
    13:00 +17°C° 0.9 mm 3 mps 621 mmHg 69%
    14:00 +17°C° 0.6 mm 3 mps 621 mmHg 70%
    15:00 +17°C° 0.6 mm 4 mps 621 mmHg 70%
    16:00 +15°C° 0.6 mm 4 mps 621 mmHg 71%
    17:00 +14°C° 0.9 mm 3 mps 621 mmHg 77%
    18:00 +12°C° 0.9 mm 3 mps 620 mmHg 83%
    19:00 +12°C° 0.9 mm 2 mps 620 mmHg 90%
    20:00 +10°C° 0.7 mm 2 mps 620 mmHg 92%
    21:00 +8°C° 0.7 mm 2 mps 619 mmHg 94%
    22:00 +7°C° 0.7 mm 2 mps 619 mmHg 96%
    23:00 +7°C° 0.5 mm 2 mps 619 mmHg 96%
    Show more